Retour au catalogue

STARLINK-37328

ActifCommunicationsVLEO
NORAD 69160·PAYLOAD·🇺🇸 United States

Lancé May 21, 2026 depuis Cape Canaveral Space Force Station

Loading…

Prochains Passages (prochaines 24 heures)

TLE

FraisSource: CelesTrak SupGP

Époque: Sep 15, 2026, 03:43 UTC

1 69160C 26111N   26258.15534722 -.00020864  00000+0 -61615-3 0  2586
2 69160  53.1577  90.7677 0001224  80.4018  49.5500 15.34415282    17

Suivez STARLINK-37328 en temps réel avec AllMySat

Download on the App Store